Regional Weather Roundup
Issued by NWS Upton, NY

Current Version | Previous Version | Text Only | Print | Product List | Glossary Off
Versions: 1 2 3 4 5 6 7 8 9 10 11 12 13 14 15 16 17 18 19 20 21 22 23 24 25 26 27
000 ASUS41 KOKX 211205 RWROKX Regional Weather Roundup National Weather Service New York NY 800 AM EDT SAT APR 21 2018 Note: "FAIR" indicates few or no clouds below 12,000 feet with no significant weather and/or obstructions to visibility. NYZ071-072-176-178-NJZ106-104-211300- New York City Metro Area CITY SKY/WX TMP DP RH WIND PRES REMARKS Central Park FAIR 41 25 53 NW9G16 30.43S Bronx Bot Gard N/A 43 25 49 NW10 30.42S Bronx Lehman C N/A 41 25 52 NW5 N/A LaGuardia Arpt FAIR 43 26 51 NW15 30.41R Queens College N/A 41 27 56 NW8 N/A Kennedy Intl FAIR 44 26 49 NW12 30.42R Breezy Point N/A 41 N/A N/A NW10G18 N/A Brooklyn Coll N/A 43 27 52 W12 N/A Staten Island N/A 41 27 56 W7 N/A Newark/Liberty PTSUNNY 44 24 45 NW8 30.42R Teterboro FAIR 42 25 50 NW9G17 30.41S $$ NYZ177-179-078>081-211300- Long Island New York CITY SKY/WX TMP DP RH WIND PRES REMARKS Jones Beach N/A 41 N/A N/A NW10 N/A Wantagh N/A 43 27 52 NW8 N/A Hempstead N/A 41 28 60 NW6 30.43R Matinecock Pt N/A 43 N/A N/A NW14 N/A Farmingdale FAIR 42 26 53 NW8 30.40R MacArthur/ISP FAIR 42 29 59 NW7 30.38S Stony Brook N/A 41 30 65 NW8 N/A Shirley FAIR 42 30 62 NW9 30.39R Mt Sinai Harb N/A 43 N/A N/A W6 N/A Westhampton FAIR 42 29 59 NW10 30.39S East Hampton FAIR 41 28 60 NW7 30.37S Southold N/A 41 30 65 NW5 N/A Montauk N/A 44 31 60 NW9 30.37R $$ NYZ052-065-067-211300- Hudson Valley CITY SKY/WX TMP DP RH WIND PRES REMARKS White Plains FAIR 39 25 57 NW12 30.38S WCI 32 Larchmont Harb N/A 41 N/A N/A W13 N/A Croton On Huds N/A 43 N/A N/A MISG N/A Somers N/A 37 27 65 NW5 N/A WCI 34 Brewster N/A 36 27 69 SW1 N/A Newburgh SUNNY 36 27 69 W7 30.40R WCI 30 Montgomery FAIR 40 25 55 CALM 30.38R Otisville N/A 36 27 69 NW9 N/A WCI 29 Warwick N/A 37 28 70 W7 N/A WCI 32 Suffern N/A 37 27 65 NW7 N/A WCI 32 Poughkeepsie FAIR 36 29 75 CALM 30.39S Albany FAIR 39 26 59 NW7 30.38R WCI 34 $$ NJZ001-105-106-008-010-013-015-019>022-104-211300- New Jersey CITY SKY/WX TMP DP RH WIND PRES REMARKS Newark/Liberty PTSUNNY 44 24 45 NW8 30.42R Teterboro FAIR 42 25 50 NW9G17 30.41S Caldwell FAIR 41 26 55 VRB5 30.43R Somerville FAIR 39 33 79 CALM 30.42R Linden FAIR 42 25 52 CALM 30.43S Perth Amboy N/A 41 N/A N/A NW7 N/A Sussex FAIR 35 30 82 CALM 30.41S Andover N/A 35 30 82 CALM 30.42S Trenton FAIR 41 27 57 NW6 30.43R Millville FAIR 42 28 57 NW7 30.45S Atlantic City FAIR 42 29 59 NW9 30.44S Wrightstown FAIR 41 27 56 W7 30.41 Toms River FAIR 40 27 59 NW6 30.44S Belmar FAIR 41 25 53 NW13 30.43R $$ PAZ047>061-062-071-211300- Eastern Pennsylvania CITY SKY/WX TMP DP RH WIND PRES REMARKS Philadelphia PTSUNNY 42 26 53 NW3 30.46R Allentown FAIR 39 26 59 SW6 30.44R WCI 35 Scranton FAIR 34 27 75 CALM 30.42S $$ CTZ002-004>006-009-010-012-RIZ004-006-007-MAZ004-011-015-211300- Southern New England In CT CITY SKY/WX TMP DP RH WIND PRES REMARKS Bradley Intl FAIR 40 27 59 S5 30.36R Hartford FAIR 41 27 57 W6 30.38R Danbury FAIR 37 26 64 SW6 30.39S WCI 32 Wtrbury/Oxford FAIR 37 24 59 W7 30.37R WCI 32 Norwalk Harbor N/A 39 N/A N/A NW12 N/A WCI 32 Bridgeport FAIR 43 25 49 NW13 30.39R Meriden FAIR 41 26 55 NW9 30.37S New Haven FAIR 43 26 51 NW7 30.38R Chester FAIR 43 25 49 NW9 30.36R Groton FAIR 43 28 55 NW12 30.35S Willimantic FAIR 39 27 62 CALM 30.36R In RI CITY SKY/WX TMP DP RH WIND PRES REMARKS Providence FAIR 43 28 55 W10 30.34R Block Island FAIR 41 29 62 NW12 30.35R Westerly FAIR 44 28 53 VRB7 30.35R In MA CITY SKY/WX TMP DP RH WIND PRES REMARKS Boston FAIR 43 27 53 NW15 30.31R Worcester FAIR 35 25 66 W12 30.30R WCI 27 Westfield FAIR 39 27 62 VRB5 30.35R Provincetown FAIR 43 32 65 NW16G22 30.29R Nantucket FAIR 43 31 62 NW17 30.30R $$ ANZ330-335-338-340-345-350-353-355-211300- Coastal Marine Observations STATION/POSITION TIME SKY/WX TEMP WIND PRES VSBY WAVE AIR SEA DIR/SP/G HT/PER (UTC) (F) (DEG/KT/KT) (MB) (MI) (FT/S) NY Harb Entrance 1150 42 44 310/ 14/ 17 1030.0 2/ 3 20 S Fire Island 1150 42 42 310/ 14/ 16 1029.4 2/ 4 23 SSW Montauk P 1150 41 42 300/ 16/ 17 1028.3 2/ 3 15 E Barnegat Li 1130 44 N/A 3/ 4 Hudson Canyon 1150 43 44 330/ 14/ 16 1028.7 4/ 5 Kings Point 1148 44 N/A Execution Rocks NOT AVBL Western LI Sound NOT AVBL Central LI Sound 1115 41 300/ 10/ 12 N/A 1 Robbins Reef 1148 41 310/ 6/ 8 1030.8 $$ >>>>>>>>>>>>>>>>>>>>>>>>>>>> KEY <<<<<<<<<<<<<<<<<<<<<<<<<<< > < > SKY/WX - Sky Condition/Present Weather < > TMP - Temperature in Fahrenheit < > DP - Dew Point in Fahrenheit < > RH - Relative Humidity in Percent < > WIND - Direction (from) and Speed in MPH < > PRES - Mean Sea Level Pressure (inches of Hg) < > WCI - Wind Chill Index < > VSB - Visibility in Miles < > HX - Heat Index < > TC - Temperature in Celsius < > VRB - Varibale Wind Direction < > < >>>>>>>>>>>>>>>>>>>>>>>>>>>> KEY <<<<<<<<<<<<<<<<<<<<<<<<<<<

USA.gov is the U.S. government's official web portal to all federal, state and local government web resources and services.